• în Republica Moldova
  • Lista ţărilor
  • Pe 7 zile
  • Temperatura apei
  • Hartă satelitară
  • Meteo pe hartă
  • Widget-uri
  • user-avatar
    Intrare

    Meteo pe oră la Durres

    Astăzi, 28 Mai, Duminică

    Timp Temperatura Precipitaţii Vânt Presiune Umiditate
    00:00 +15°C° 0 mm 5 m/s 761 mmHg 75%
    01:00 +15°C° 0 mm 5 m/s 761 mmHg 74%
    02:00 +15°C° 0 mm 5 m/s 761 mmHg 74%
    03:00 +14°C° 0 mm 5 m/s 761 mmHg 74%
    04:00 +14°C° 0 mm 5 m/s 761 mmHg 74%
    05:00 +16°C° 0 mm 5 m/s 761 mmHg 69%
    06:00 +19°C° 0 mm 5 m/s 761 mmHg 63%
    07:00 +21°C° 0 mm 5 m/s 761 mmHg 55%
    08:00 +22°C° 0 mm 5 m/s 761 mmHg 49%
    09:00 +25°C° 0 mm 5 m/s 761 mmHg 44%
    10:00 +26°C° 0 mm 5 m/s 761 mmHg 38%
    11:00 +27°C° 0 mm 5 m/s 761 mmHg 37%
    12:00 +28°C° 0 mm 5 m/s 761 mmHg 36%
    13:00 +28°C° 0 mm 6 m/s 761 mmHg 35%
    14:00 +28°C° 0 mm 6 m/s 761 mmHg 37%
    15:00 +28°C° 0 mm 6 m/s 761 mmHg 39%
    16:00 +27°C° 0 mm 7 m/s 761 mmHg 42%
    17:00 +24°C° 0 mm 7 m/s 761 mmHg 50%
    18:00 +22°C° 0 mm 7 m/s 762 mmHg 58%
    19:00 +20°C° 0 mm 6 m/s 762 mmHg 65%
    20:00 +19°C° 0 mm 6 m/s 762 mmHg 67%
    21:00 +19°C° 0 mm 5 m/s 762 mmHg 69%
    22:00 +17°C° 0 mm 5 m/s 763 mmHg 70%
    23:00 +17°C° 0 mm 5 m/s 763 mmHg 71%

    Mâine, 29 Mai, Luni

    Timp Temperatura Precipitaţii Vânt Presiune Umiditate
    00:00 +17°C° 0 mm 4 m/s 763 mmHg 72%
    01:00 +17°C° 0 mm 4 m/s 763 mmHg 72%
    02:00 +17°C° 0 mm 4 m/s 762 mmHg 73%
    03:00 +15°C° 0 mm 4 m/s 762 mmHg 73%
    04:00 +16°C° 0 mm 3 m/s 762 mmHg 73%
    05:00 +18°C° 0 mm 3 m/s 762 mmHg 68%
    06:00 +20°C° 0 mm 3 m/s 762 mmHg 64%
    07:00 +21°C° 0 mm 3 m/s 762 mmHg 59%
    08:00 +24°C° 0 mm 2 m/s 762 mmHg 53%
    09:00 +27°C° 0 mm 1 m/s 762 mmHg 46%
    10:00 +29°C° 0 mm 1 m/s 762 mmHg 40%
    11:00 +29°C° 0 mm 2 m/s 762 mmHg 40%
    12:00 +28°C° 0 mm 3 m/s 761 mmHg 40%
    13:00 +28°C° 0 mm 4 m/s 761 mmHg 41%
    14:00 +28°C° 0 mm 4 m/s 761 mmHg 43%
    15:00 +27°C° 0 mm 4 m/s 761 mmHg 45%
    16:00 +27°C° 0 mm 4 m/s 760 mmHg 48%
    17:00 +24°C° 0 mm 3 m/s 760 mmHg 57%
    18:00 +21°C° 0 mm 3 m/s 760 mmHg 66%
    19:00 +19°C° 0 mm 2 m/s 760 mmHg 76%
    20:00 +18°C° 0 mm 2 m/s 761 mmHg 77%
    21:00 +18°C° 0 mm 1 m/s 761 mmHg 78%
    22:00 +18°C° 0 mm 1 m/s 761 mmHg 80%
    23:00 +18°C° 0 mm 1 m/s 761 mmHg 80%

    Poimâine, 30 Mai, Marţi

    Timp Temperatura Precipitaţii Vânt Presiune Umiditate
    00:00 +16°C° 0 mm 1 m/s 761 mmHg 81%
    01:00 +16°C° 0 mm 1 m/s 761 mmHg 81%
    02:00 +16°C° 0 mm 1 m/s 761 mmHg 82%
    03:00 +15°C° 0 mm 1 m/s 760 mmHg 83%
    04:00 +15°C° 0 mm 1 m/s 760 mmHg 85%
    05:00 +19°C° 0 mm 1 m/s 761 mmHg 76%
    06:00 +21°C° 0 mm 1 m/s 761 mmHg 67%
    07:00 +24°C° 0 mm 1 m/s 761 mmHg 58%
    08:00 +25°C° 0 mm 1 m/s 761 mmHg 53%
    09:00 +26°C° 0 mm 1 m/s 761 mmHg 48%
    10:00 +27°C° 0 mm 1 m/s 761 mmHg 43%
    11:00 +28°C° 0 mm 2 m/s 761 mmHg 42%
    12:00 +28°C° 0 mm 2 m/s 761 mmHg 41%
    13:00 +29°C° 0 mm 3 m/s 761 mmHg 40%
    14:00 +28°C° 0 mm 3 m/s 761 mmHg 42%
    15:00 +28°C° 0 mm 3 m/s 761 mmHg 43%
    16:00 +27°C° 0 mm 2 m/s 761 mmHg 45%
    17:00 +24°C° 0 mm 2 m/s 761 mmHg 55%
    18:00 +22°C° 0 mm 1 m/s 761 mmHg 66%
    19:00 +19°C° 0 mm 1 m/s 761 mmHg 76%
    20:00 +19°C° 0 mm 1 m/s 762 mmHg 76%
    21:00 +18°C° 0 mm 1 m/s 762 mmHg 77%
    22:00 +18°C° 0 mm 1 m/s 762 mmHg 77%
    23:00 +16°C° 0 mm 1 m/s 762 mmHg 78%

    31 Mai, Miercuri

    Timp Temperatura Precipitaţii Vânt Presiune Umiditate
    00:00 +16°C° 0 mm 1 m/s 762 mmHg 78%
    01:00 +16°C° 0 mm 1 m/s 762 mmHg 78%
    02:00 +15°C° 0 mm 1 m/s 762 mmHg 78%
    03:00 +15°C° 0 mm 1 m/s 762 mmHg 78%
    04:00 +15°C° 0 mm 1 m/s 762 mmHg 78%
    05:00 +19°C° 0 mm 1 m/s 762 mmHg 69%
    06:00 +20°C° 0 mm 2 m/s 762 mmHg 60%
    07:00 +24°C° 0 mm 2 m/s 762 mmHg 50%
    08:00 +25°C° 0 mm 2 m/s 762 mmHg 46%
    09:00 +27°C° 0 mm 2 m/s 762 mmHg 42%
    10:00 +28°C° 0 mm 2 m/s 763 mmHg 38%
    11:00 +28°C° 0 mm 2 m/s 762 mmHg 38%
    12:00 +29°C° 0 mm 3 m/s 762 mmHg 37%
    13:00 +29°C° 0 mm 3 m/s 762 mmHg 37%
    14:00 +29°C° 0 mm 3 m/s 762 mmHg 40%
    15:00 +28°C° 0 mm 2 m/s 761 mmHg 42%
    16:00 +27°C° 0 mm 2 m/s 761 mmHg 44%
    17:00 +25°C° 0 mm 1 m/s 761 mmHg 55%
    18:00 +22°C° 0 mm 1 m/s 761 mmHg 66%
    19:00 +20°C° 0 mm 1 m/s 761 mmHg 77%
    20:00 +19°C° 0 mm 1 m/s 762 mmHg 79%
    21:00 +18°C° 0 mm 1 m/s 762 mmHg 80%
    22:00 +16°C° 0 mm 0 m/s 762 mmHg 82%
    23:00 +15°C° 0 mm 0 m/s 762 mmHg 82%

    1 Iunie, Joi

    Timp Temperatura Precipitaţii Vânt Presiune Umiditate
    00:00 +15°C° 0 mm 0 m/s 762 mmHg 82%
    01:00 +15°C° 0 mm 0 m/s 762 mmHg 83%
    02:00 +15°C° 0 mm 1 m/s 761 mmHg 83%
    03:00 +15°C° 0 mm 1 m/s 761 mmHg 83%
    04:00 +15°C° 0 mm 1 m/s 761 mmHg 83%
    05:00 +19°C° 0 mm 1 m/s 761 mmHg 72%
    06:00 +22°C° 0 mm 1 m/s 761 mmHg 61%
    07:00 +25°C° 0 mm 1 m/s 761 mmHg 49%
    08:00 +26°C° 0 mm 1 m/s 761 mmHg 46%
    09:00 +27°C° 0 mm 1 m/s 761 mmHg 43%
    10:00 +28°C° 0 mm 1 m/s 761 mmHg 39%
    11:00 +29°C° 0 mm 2 m/s 761 mmHg 38%
    12:00 +29°C° 0 mm 2 m/s 760 mmHg 37%
    13:00 +30°C° 0 mm 3 m/s 760 mmHg 37%
    14:00 +29°C° 0 mm 3 m/s 760 mmHg 39%
    15:00 +29°C° 0 mm 2 m/s 760 mmHg 41%
    16:00 +28°C° 0 mm 2 m/s 760 mmHg 43%
    17:00 +25°C° 0 mm 2 m/s 760 mmHg 53%
    18:00 +23°C° 0 mm 1 m/s 760 mmHg 64%
    19:00 +20°C° 0 mm 1 m/s 760 mmHg 74%
    20:00 +19°C° 0 mm 1 m/s 760 mmHg 76%
    21:00 +17°C° 0 mm 0 m/s 761 mmHg 78%
    22:00 +16°C° 0 mm 0 m/s 761 mmHg 80%
    23:00 +16°C° 0 mm 0 m/s 761 mmHg 79%

    2 Iunie, Vineri

    Timp Temperatura Precipitaţii Vânt Presiune Umiditate
    00:00 +16°C° 0 mm 0 m/s 760 mmHg 79%
    01:00 +18°C° 0 mm 1 m/s 760 mmHg 78%
    02:00 +16°C° 0 mm 1 m/s 760 mmHg 78%
    03:00 +16°C° 0 mm 1 m/s 760 mmHg 78%
    04:00 +16°C° 0 mm 1 m/s 759 mmHg 79%
    05:00 +20°C° 0 mm 1 m/s 760 mmHg 69%
    06:00 +22°C° 0 mm 1 m/s 760 mmHg 59%
    07:00 +25°C° 0 mm 1 m/s 760 mmHg 49%
    08:00 +27°C° 0 mm 1 m/s 760 mmHg 45%
    09:00 +28°C° 0 mm 1 m/s 760 mmHg 42%
    10:00 +29°C° 0 mm 2 m/s 760 mmHg 38%
    11:00 +30°C° 0 mm 2 m/s 759 mmHg 38%
    12:00 +30°C° 0 mm 3 m/s 759 mmHg 38%
    13:00 +30°C° 0 mm 4 m/s 759 mmHg 38%
    14:00 +30°C° 0 mm 4 m/s 759 mmHg 40%
    15:00 +29°C° 0 mm 4 m/s 759 mmHg 42%
    16:00 +28°C° 0 mm 3 m/s 759 mmHg 45%
    17:00 +26°C° 0 mm 3 m/s 759 mmHg 56%
    18:00 +22°C° 0 mm 3 m/s 759 mmHg 66%
    19:00 +20°C° 0 mm 2 m/s 759 mmHg 77%
    20:00 +19°C° 0 mm 2 m/s 759 mmHg 79%
    21:00 +19°C° 0 mm 1 m/s 760 mmHg 81%
    22:00 +18°C° 0 mm 1 m/s 760 mmHg 83%
    23:00 +18°C° 0 mm 1 m/s 760 mmHg 83%
    Arată mai mult